Regional Weather Roundup
Issued by NWS New Orleans/Baton Rouge, LA

Home | Current Version | Previous Version | Text Only | Print | Product List | Glossary Off
Versions: 1 2 3 4 5 6 7 8 9 10 11 12 13 14 15 16 17 18 19 20 21 22 23 24 25 26 27 28 29 30 31 32 33 34 35 36 37 38 39 40 41 42 43 44 45 46 47 48 49 50

759
ASUS44 KLIX 212101
RWRLIX
NEW ORLEANS REGIONAL WEATHER ROUNDUP
NATIONAL WEATHER SERVICE NEW ORLEANS LA
300 PM CST SUN DEC 21 2014

NOTE: "FAIR" INDICATES FEW OR NO CLOUDS BELOW 12,000 FEET WITH NO
      SIGNIFICANT WEATHER AND/OR OBSTRUCTIONS TO VISIBILITY.
      SKY/WX - SKY CONDITION AND SIGNIFICANT WEATHER.
      TMP - AIR TEMPERATURE.     DP    - DEWPOINT TEMPERATURE.
      RH  - RELATIVE HUMIDITY.   PRES  - PRESSURE.
      HI  - HEAT INDEX.          WCI   - WIND CHILL INDEX.

*  THESE STATIONS ARE NOT NWS OR FAA STATIONS AND ARE NOT UNDER
   NWS QUALITY CONTROL.

LAZ038-040-048-061>063-065>067-069-212200-
SOUTHEAST LOUISIANA

CITY           SKY/WX    TMP DP  RH WIND       PRES   REMARKS
N.O. AUDUBON     N/A     58  53  81 MISG        N/A
N.O. INTL ARPT CLOUDY    58  51  78 NE5       30.02S
N.O. LAKEFRONT CLOUDY    58  51  78 E7        30.01F
N.O. DOWNTOWN* MOCLDY    57  48  72 CALM      30.02S
SLIDELL        CLOUDY    59  51  75 S8        30.01F
BATON ROUGE    CLOUDY    60  49  66 S3        30.01F
BOOTHVILLE     CLOUDY    58  55  90 N6        30.02R
BELLE CHASSE   CLOUDY    60  52  74 E6        29.99F
BOGALUSA*        N/A     63  50  64 SE3       30.02F
GALLIANO*      NOT AVBL
NEW ROADS*     NOT AVBL
GONZALES*      NOT AVBL
HAMMOND*       NOT AVBL
HOUMA*         CLOUDY    57  54  88 NE5       30.01F
PORT FOURCHON* PTCLDY    59  55  88 N9        30.03S

$$

MSZ070-080>082-212200-
SOUTHERN MISSISSIPPI

CITY           SKY/WX    TMP DP  RH WIND       PRES   REMARKS
MCCOMB         CLOUDY    58  49  72 E5        30.00F
GULFPORT       CLOUDY    59  52  77 E3        30.01F
BILOXI         CLOUDY    59  53  82 NE5       30.01
PASCAGOULA     CLOUDY    58  53  84 NE5       30.01F
STENNIS ARPT*    N/A     57  48  72 SE5       30.02F

$$

COASTAL OBSERVATIONS
LAKE AND NEARSHORE STATIONS

STATION/POSITION TIME  TEMP    WIND        PRES    WAVE
                       AIR SEA DIR/SP/G            HT/PER
                 (UTC) (F)     (DEG/KT/KT) (MB)    (FT/S)
PASCAGOULA       2000   58      10/  5/  7 1015.7
WAVELAND YACHT   2000   54     150/  6/  8 1015.9
GRAND ISLE       2000   59 60   30/  6/  9 1016.4
SOUTHWEST PASS   2000   60                 1015.8
NEW CANAL        2000   55 56   50/  6/  7 1016.7
SHELL BEACH      2000   56 57   10/  5/  5 1016.3

OFFSHORE STATIONS

STATION/POSITION TIME  TEMP    WIND        PRES    WAVE
                       AIR SEA DIR/SP/G            HT/PER
                 (UTC) (F)     (DEG/KT/KT) (MB)    (FT/S)
64 S DAUPHIN ISL 2100   66 74   50/ 10/ 12 1014.5    3/ 5

$$




USA.gov is the U.S. government's official web portal to all federal, state and local government web resources and services.